contact:dominique.lefevre@mio.osupytheas.fr, maurice.libes@osupytheas.fr, didier.mallarino@osupytheas.fr
Project:EMSO http://www.emso-fr.org/EMSO-France
Depth: 2436.0 m
Title:EMSO Ligure Ouest : Data MII capteur AQUADOPP
Date,Latitude,Longitude,X_East,Y_North,Z_Up,Amplitude_X,Amplitude_Y,Amplitude_Z,Batterie,SoundSpeed,Heading,Pitch,Roll,Pressure,TIS,Speed,Direction
, degrees North, degrees East, m.s-1, m.s-1,m.s-1, 1, 1, 1, Volt, m.s-1, degree, degree, degree, dbar, degree_C, m.s-1, degree
2023-08-12T00:04:03,42.805,6.029,0.022,-0.012,-0.039,103.0,102.0,102.0,13.4,1505.2,353.0,-0.7,1.8,2471.515,13.28,0.025,118.6
2023-08-12T00:07:03,42.805,6.029,0.027,-0.005,-0.031,102.0,102.0,102.0,13.4,1505.2,341.1,-0.8,1.9,2471.527,13.28,0.027,100.5
2023-08-12T00:10:03,42.805,6.029,0.056,-0.02,-0.038,102.0,103.0,101.0,13.3,1505.2,326.6,-0.8,1.8,2471.525,13.29,0.059,109.6
2023-08-12T00:13:03,42.805,6.029,0.026,0.003,-0.029,102.0,102.0,101.0,13.4,1505.2,342.2,-0.8,1.8,2471.495,13.29,0.026,83.4
2023-08-12T00:16:03,42.805,6.029,0.038,-0.013,-0.054,104.0,102.0,101.0,13.4,1505.2,333.9,-0.8,1.8,2471.506,13.29,0.04,108.9
2023-08-12T00:19:03,42.805,6.029,0.023,-0.033,-0.022,103.0,102.0,102.0,13.4,1505.2,345.9,-0.7,1.8,2471.477,13.29,0.04,145.1
2023-08-12T00:22:03,42.805,6.029,0.02,-0.018,-0.039,102.0,103.0,101.0,13.4,1505.2,337.3,-0.7,1.8,2471.486,13.29,0.026,132.0
2023-08-12T00:25:03,42.805,6.029,0.024,-0.026,-0.044,101.0,103.0,101.0,13.4,1505.2,341.1,-0.8,1.8,2471.471,13.29,0.035,137.3
2023-08-12T00:28:03,42.805,6.029,0.025,0.002,0.023,102.0,102.0,101.0,13.4,1505.2,320.5,-0.8,1.8,2471.477,13.29,0.025,85.4
2023-08-12T00:31:03,42.805,6.029,0.029,-0.019,-0.023,103.0,103.0,100.0,13.4,1505.2,352.0,-0.8,1.8,2471.434,13.29,0.034,123.2
2023-08-12T00:34:03,42.805,6.029,0.041,0.012,-0.016,102.0,102.0,100.0,13.4,1505.2,327.6,-0.8,1.8,2471.466,13.29,0.042,73.7
2023-08-12T00:37:03,42.805,6.029,0.005,-0.022,-0.049,102.0,102.0,101.0,13.3,1505.2,348.4,-0.8,1.8,2471.508,13.29,0.022,167.2
2023-08-12T00:40:03,42.805,6.029,0.025,-0.028,-0.023,102.0,102.0,101.0,13.4,1505.2,349.9,-0.8,1.8,2471.479,13.29,0.037,138.2
2023-08-12T00:43:03,42.805,6.029,0.021,-0.01,-0.047,103.0,102.0,100.0,13.4,1505.2,331.7,-0.8,1.8,2471.471,13.29,0.023,115.5
2023-08-12T00:46:03,42.805,6.029,0.022,-0.038,-0.025,102.0,101.0,101.0,13.4,1505.2,349.1,-0.8,1.8,2471.446,13.29,0.043,149.9
2023-08-12T00:49:03,42.805,6.029,0.037,-0.015,-0.029,102.0,103.0,102.0,13.4,1505.2,328.8,-0.8,1.8,2471.453,13.29,0.039,112.1
2023-08-12T00:52:03,42.805,6.029,0.013,-0.003,-0.032,102.0,102.0,101.0,13.3,1505.2,328.3,-0.8,1.8,2471.43,13.29,0.013,103.0
2023-08-12T00:55:03,42.805,6.029,0.015,-0.016,-0.016,103.0,102.0,101.0,13.4,1505.2,341.5,-0.8,1.8,2471.44,13.29,0.021,136.9
2023-08-12T00:58:03,42.805,6.029,-0.01,-0.015,-0.032,101.0,104.0,101.0,13.4,1505.2,343.4,-0.8,1.8,2471.481,13.29,0.018,213.7
2023-08-12T01:04:03,42.805,6.029,0.019,-0.012,-0.021,100.0,103.0,103.0,13.4,1505.2,333.9,-0.8,1.8,2471.541,13.28,0.022,122.3
2023-08-12T01:07:03,42.805,6.029,0.021,-0.012,-0.032,103.0,101.0,100.0,13.3,1505.2,347.2,-0.8,1.8,2471.531,13.28,0.024,119.7
2023-08-12T01:10:03,42.805,6.029,0.02,0.001,-0.015,102.0,104.0,101.0,13.4,1505.2,340.4,-0.7,1.8,2471.539,13.29,0.02,87.1
2023-08-12T01:13:03,42.805,6.029,-0.011,-0.024,0.003,101.0,102.0,100.0,13.4,1505.2,347.4,-0.8,1.8,2471.568,13.29,0.026,204.6
2023-08-12T01:16:03,42.805,6.029,0.016,-0.011,-0.038,102.0,101.0,100.0,13.4,1505.2,338.3,-0.7,1.8,2471.525,13.29,0.019,124.5
2023-08-12T01:19:03,42.805,6.029,0.025,-0.003,-0.025,101.0,102.0,101.0,13.4,1505.2,325.5,-0.8,1.8,2471.493,13.29,0.025,96.8
2023-08-12T01:22:03,42.805,6.029,0.031,-0.038,-0.01,102.0,101.0,102.0,13.4,1505.2,338.8,-0.8,1.8,2471.493,13.29,0.049,140.8
2023-08-12T01:25:03,42.805,6.029,0.028,-0.03,-0.023,102.0,99.0,102.0,13.4,1505.2,350.9,-0.7,1.8,2471.499,13.29,0.041,137.0
2023-08-12T01:28:03,42.805,6.029,0.012,-0.029,-0.02,100.0,102.0,102.0,13.4,1505.2,341.9,-0.8,1.8,2471.503,13.29,0.031,157.5
2023-08-12T01:31:03,42.805,6.029,0.032,-0.043,-0.023,102.0,101.0,101.0,13.3,1505.2,344.9,-0.7,1.8,2471.479,13.29,0.053,143.3
2023-08-12T01:34:03,42.805,6.029,0.026,-0.043,-0.033,102.0,103.0,100.0,13.4,1505.2,345.4,-0.8,1.8,2471.529,13.29,0.05,148.8
2023-08-12T01:37:03,42.805,6.029,0.02,-0.024,-0.042,102.0,103.0,100.0,13.4,1505.2,341.5,-0.8,1.8,2471.504,13.29,0.031,140.2
2023-08-12T01:40:03,42.805,6.029,0.021,-0.027,-0.069,102.0,102.0,101.0,13.3,1505.2,320.4,-0.8,1.8,2471.469,13.29,0.034,142.1
2023-08-12T01:43:03,42.805,6.029,0.02,-0.032,-0.038,103.0,101.0,101.0,13.4,1505.2,326.9,-0.7,1.8,2471.43,13.29,0.037,148.0
2023-08-12T01:46:03,42.805,6.029,0.025,-0.047,-0.021,103.0,101.0,102.0,13.4,1505.2,340.0,-0.8,1.8,2471.495,13.29,0.053,152.0
2023-08-12T01:49:03,42.805,6.029,0.014,-0.039,-0.074,102.0,104.0,101.0,13.4,1505.2,335.1,-0.8,1.8,2471.498,13.29,0.041,160.3
2023-08-12T01:52:03,42.805,6.029,0.03,-0.027,-0.038,101.0,103.0,100.0,13.3,1505.2,322.1,-0.7,1.8,2471.509,13.29,0.04,132.0
2023-08-12T01:55:03,42.805,6.029,-0.004,0.001,-0.004,101.0,102.0,102.0,13.4,1505.2,342.3,-0.7,1.8,2471.513,13.29,0.004,284.0
2023-08-12T01:58:03,42.805,6.029,0.034,-0.028,-0.045,102.0,102.0,101.0,13.4,1505.2,326.0,-0.8,1.8,2471.459,13.29,0.044,129.5
2023-08-12T02:04:03,42.805,6.029,0.001,-0.018,-0.034,102.0,102.0,101.0,13.3,1505.2,328.3,-0.8,1.8,2471.494,13.28,0.018,176.8
2023-08-12T02:07:03,42.805,6.029,0.015,-0.022,-0.036,102.0,102.0,101.0,13.3,1505.2,343.3,-0.8,1.8,2471.551,13.28,0.026,145.7
2023-08-12T02:10:03,42.805,6.029,0.01,-0.005,-0.016,101.0,102.0,101.0,13.3,1505.2,321.4,-0.8,1.8,2471.521,13.29,0.011,116.6
2023-08-12T02:13:03,42.805,6.029,0.019,0.01,0.026,102.0,102.0,101.0,13.4,1505.2,330.7,-0.8,1.8,2471.525,13.29,0.021,62.2
2023-08-12T02:16:03,42.805,6.029,0.022,-0.023,-0.007,103.0,101.0,100.0,13.4,1505.2,342.8,-0.8,1.8,2471.476,13.29,0.031,136.3
2023-08-12T02:19:03,42.805,6.029,0.003,-0.041,-0.056,102.0,103.0,101.0,13.3,1505.2,351.5,-0.8,1.8,2471.518,13.29,0.041,175.8
2023-08-12T02:22:03,42.805,6.029,0.019,-0.021,-0.053,101.0,102.0,101.0,13.3,1505.2,326.9,-0.8,1.8,2471.511,13.29,0.028,137.9
2023-08-12T02:25:03,42.805,6.029,0.0,-0.012,-0.041,101.0,102.0,101.0,13.4,1505.2,341.1,-0.8,1.8,2471.525,13.29,0.012,180.0
2023-08-12T02:28:03,42.805,6.029,0.026,-0.04,-0.059,103.0,100.0,101.0,13.3,1505.2,323.4,-0.8,1.8,2471.479,13.29,0.047,147.0
2023-08-12T02:31:03,42.805,6.029,0.044,-0.036,-0.026,102.0,102.0,101.0,13.4,1505.2,340.4,-0.8,1.8,2471.524,13.29,0.056,129.3
2023-08-12T02:34:03,42.805,6.029,-0.008,-0.008,-0.044,101.0,102.0,101.0,13.3,1505.2,326.5,-0.8,1.8,2471.485,13.29,0.011,225.0
2023-08-12T02:37:03,42.805,6.029,0.008,-0.006,-0.014,100.0,101.0,101.0,13.4,1505.2,347.7,-0.7,1.8,2471.477,13.29,0.01,126.9
2023-08-12T02:40:03,42.805,6.029,0.011,-0.021,-0.027,101.0,102.0,101.0,13.3,1505.2,344.0,-0.8,1.8,2471.519,13.29,0.023,152.4
2023-08-12T02:43:03,42.805,6.029,0.009,-0.022,-0.051,100.0,102.0,101.0,13.3,1505.2,334.4,-0.8,1.8,2471.519,13.29,0.023,157.8
2023-08-12T02:46:03,42.805,6.029,0.03,-0.057,-0.007,101.0,103.0,102.0,13.4,1505.2,347.9,-0.8,1.8,2471.505,13.29,0.064,152.2
2023-08-12T02:49:03,42.805,6.029,0.014,-0.019,-0.025,102.0,102.0,101.0,13.3,1505.2,325.6,-0.8,1.8,2471.472,13.29,0.023,143.6
2023-08-12T02:52:03,42.805,6.029,0.017,-0.017,-0.03,101.0,101.0,102.0,13.4,1505.2,329.4,-0.7,1.8,2471.507,13.29,0.024,135.0
2023-08-12T02:55:03,42.805,6.029,0.002,-0.002,-0.018,102.0,102.0,101.0,13.4,1505.2,319.1,-0.8,1.8,2471.505,13.29,0.002,135.0
2023-08-12T02:58:03,42.805,6.029,0.018,0.014,-0.015,102.0,102.0,101.0,13.3,1505.2,341.8,-0.7,1.8,2471.513,13.29,0.022,52.1
2023-08-12T03:04:03,42.805,6.029,-0.024,0.016,0.004,103.0,101.0,100.0,13.4,1505.2,343.0,-0.7,1.8,2471.536,13.28,0.028,303.7
2023-08-12T03:07:03,42.805,6.029,0.004,-0.039,-0.057,103.0,101.0,100.0,13.4,1505.2,326.8,-0.7,1.8,2471.518,13.28,0.039,174.1
2023-08-12T03:10:03,42.805,6.029,-0.007,0.005,-0.022,101.0,102.0,100.0,13.3,1505.2,349.3,-0.7,1.8,2471.517,13.29,0.008,305.5
2023-08-12T03:13:03,42.805,6.029,0.005,-0.017,-0.072,101.0,101.0,101.0,13.3,1505.2,324.3,-0.7,1.8,2471.49,13.29,0.017,163.6
2023-08-12T03:16:03,42.805,6.029,-0.009,0.003,-0.002,102.0,101.0,101.0,13.4,1505.2,326.8,-0.8,1.8,2471.466,13.29,0.009,288.4
2023-08-12T03:19:03,42.805,6.029,0.018,-0.028,-0.036,101.0,103.0,100.0,13.4,1505.2,328.5,-0.8,1.8,2471.514,13.29,0.033,147.3
2023-08-12T03:22:03,42.805,6.029,0.002,-0.02,-0.036,102.0,102.0,101.0,13.4,1505.2,332.1,-0.8,1.8,2471.498,13.29,0.02,174.3
2023-08-12T03:25:03,42.805,6.029,0.015,-0.014,-0.022,101.0,102.0,100.0,13.4,1505.2,340.4,-0.8,1.8,2471.509,13.29,0.02,133.0
2023-08-12T03:34:03,42.805,6.029,0.011,-0.018,-0.073,102.0,100.0,101.0,13.4,1505.2,326.6,-0.8,1.8,2471.545,13.28,0.021,148.6
2023-08-12T03:37:03,42.805,6.029,0.002,-0.009,-0.071,102.0,101.0,101.0,13.4,1505.2,349.1,-0.8,1.8,2471.508,13.28,0.009,167.5
2023-08-12T03:40:03,42.805,6.029,0.014,-0.029,-0.039,103.0,100.0,101.0,13.3,1505.2,328.5,-0.8,1.8,2471.556,13.29,0.032,154.2
2023-08-12T03:43:03,42.805,6.029,0.002,-0.02,-0.047,102.0,101.0,101.0,13.4,1505.2,339.3,-0.7,1.8,2471.54,13.29,0.02,174.3
2023-08-12T03:46:03,42.805,6.029,-0.007,-0.023,-0.022,102.0,102.0,101.0,13.4,1505.2,350.5,-0.7,1.8,2471.535,13.29,0.024,196.9
2023-08-12T03:49:03,42.805,6.029,0.005,-0.01,-0.046,101.0,101.0,101.0,13.3,1505.2,332.5,-0.8,1.8,2471.51,13.29,0.011,153.4
2023-08-12T03:52:03,42.805,6.029,0.0,-0.02,-0.056,103.0,102.0,101.0,13.3,1505.2,323.5,-0.7,1.8,2471.505,13.29,0.02,180.0
2023-08-12T03:55:03,42.805,6.029,-0.007,-0.035,-0.038,102.0,103.0,101.0,13.4,1505.2,347.1,-0.8,1.8,2471.515,13.29,0.035,191.3
2023-08-12T03:58:03,42.805,6.029,0.003,-0.011,-0.03,102.0,102.0,100.0,13.3,1505.2,321.3,-0.7,1.8,2471.506,13.29,0.011,164.7
2023-08-12T04:04:03,42.805,6.029,-0.014,-0.007,-0.027,103.0,103.0,101.0,13.4,1505.2,349.7,-0.8,1.8,2471.539,13.28,0.015,243.4
2023-08-12T04:07:03,42.805,6.029,0.001,-0.019,-0.038,101.0,102.0,101.0,13.3,1505.2,347.8,-0.8,1.8,2471.54,13.28,0.019,177.0
2023-08-12T04:10:03,42.805,6.029,0.0,-0.022,-0.047,101.0,104.0,101.0,13.3,1505.2,342.2,-0.8,1.8,2471.541,13.29,0.022,180.0
2023-08-12T04:13:03,42.805,6.029,-0.015,0.009,-0.016,102.0,102.0,100.0,13.3,1505.2,339.8,-0.8,1.8,2471.539,13.29,0.017,301.0
2023-08-12T04:16:03,42.805,6.029,-0.019,-0.016,-0.059,103.0,102.0,101.0,13.4,1505.2,322.5,-0.8,1.8,2471.522,13.29,0.024,229.9
2023-08-12T04:19:03,42.805,6.029,-0.015,-0.007,-0.05,102.0,102.0,101.0,13.3,1505.2,330.9,-0.8,1.8,2471.487,13.29,0.016,245.0
2023-08-12T04:22:03,42.805,6.029,0.014,-0.015,-0.052,102.0,101.0,101.0,13.3,1505.2,323.4,-0.8,1.8,2471.495,13.29,0.02,137.0
2023-08-12T04:25:03,42.805,6.029,-0.001,-0.005,-0.042,102.0,102.0,102.0,13.4,1505.2,320.7,-0.8,1.8,2471.559,13.29,0.005,191.3
2023-08-12T04:28:03,42.805,6.029,0.0,0.013,-0.012,101.0,102.0,101.0,13.3,1505.2,337.3,-0.8,1.8,2471.51,13.29,0.013,0.0
2023-08-12T04:31:03,42.805,6.029,0.009,-0.02,-0.01,103.0,102.0,101.0,13.4,1505.2,348.9,-0.8,1.8,2471.554,13.29,0.021,155.8
2023-08-12T04:34:03,42.805,6.029,-0.023,0.026,-0.025,103.0,102.0,100.0,13.4,1505.2,335.2,-0.8,1.8,2471.529,13.29,0.034,318.5
2023-08-12T04:37:03,42.805,6.029,-0.025,-0.019,-0.04,103.0,102.0,101.0,13.4,1505.2,323.4,-0.8,1.8,2471.519,13.29,0.031,232.8
2023-08-12T04:40:03,42.805,6.029,-0.007,-0.011,-0.03,101.0,101.0,101.0,13.4,1505.2,348.9,-0.7,1.8,2471.491,13.29,0.013,212.5
2023-08-12T04:43:03,42.805,6.029,-0.004,0.007,-0.024,101.0,101.0,102.0,13.4,1505.2,327.6,-0.8,1.8,2471.514,13.29,0.008,330.3
2023-08-12T04:46:03,42.805,6.029,-0.009,0.024,-0.031,104.0,100.0,102.0,13.4,1505.2,331.0,-0.8,1.8,2471.508,13.29,0.025,339.4
2023-08-12T04:49:03,42.805,6.029,0.001,-0.009,-0.011,102.0,102.0,100.0,13.4,1505.2,334.5,-0.8,1.8,2471.469,13.29,0.009,173.7
2023-08-12T04:52:03,42.805,6.029,-0.011,-0.001,-0.024,102.0,101.0,101.0,13.4,1505.2,335.8,-0.8,1.8,2471.481,13.29,0.011,264.8
2023-08-12T04:55:03,42.805,6.029,-0.02,0.009,-0.003,102.0,102.0,101.0,13.4,1505.2,329.0,-0.8,1.8,2471.54,13.29,0.021,294.2
2023-08-12T04:58:03,42.805,6.029,-0.029,0.023,-0.029,102.0,101.0,101.0,13.4,1505.2,327.0,-0.8,1.8,2471.499,13.29,0.037,308.4
2023-08-12T05:04:03,42.805,6.029,-0.018,-0.01,-0.038,102.0,103.0,101.0,13.3,1505.2,347.4,-0.8,1.8,2471.571,13.29,0.02,240.9
2023-08-12T05:07:03,42.805,6.029,0.004,-0.022,-0.047,102.0,101.0,102.0,13.4,1505.2,325.1,-0.7,1.8,2471.573,13.29,0.022,169.7
2023-08-12T05:10:03,42.805,6.029,-0.012,-0.005,-0.009,102.0,103.0,101.0,13.4,1505.2,325.1,-0.7,1.8,2471.544,13.29,0.013,247.4
2023-08-12T05:13:03,42.805,6.029,-0.014,-0.005,-0.036,101.0,101.0,101.0,13.3,1505.2,332.0,-0.8,1.8,2471.538,13.29,0.014,250.4
2023-08-12T05:16:03,42.805,6.029,-0.009,-0.024,-0.045,103.0,101.0,102.0,13.4,1505.2,334.8,-0.7,1.8,2471.511,13.29,0.025,200.6
2023-08-12T05:19:03,42.805,6.029,-0.013,-0.015,-0.056,101.0,102.0,101.0,13.4,1505.2,338.8,-0.8,1.8,2471.53,13.29,0.019,220.9
2023-08-12T05:22:03,42.805,6.029,-0.009,-0.027,-0.076,103.0,100.0,102.0,13.4,1505.2,324.5,-0.8,1.8,2471.502,13.29,0.028,198.4
2023-08-12T05:25:03,42.805,6.029,0.0,-0.01,-0.027,101.0,103.0,101.0,13.4,1505.2,325.3,-0.8,1.8,2471.547,13.29,0.01,180.0
2023-08-12T05:28:03,42.805,6.029,-0.008,-0.007,-0.066,102.0,101.0,102.0,13.4,1505.2,324.5,-0.8,1.8,2471.51,13.29,0.01,228.8
2023-08-12T05:31:03,42.805,6.029,-0.021,0.009,-0.016,101.0,101.0,101.0,13.4,1505.2,329.6,-0.7,1.8,2471.521,13.29,0.022,293.2
2023-08-12T05:34:03,42.805,6.029,-0.033,0.009,-0.068,102.0,102.0,101.0,13.4,1505.2,351.8,-0.8,1.8,2471.522,13.29,0.034,285.3
2023-08-12T05:37:03,42.805,6.029,-0.031,-0.01,-0.04,104.0,100.0,101.0,13.4,1505.2,329.3,-0.8,1.8,2471.485,13.29,0.032,252.1
2023-08-12T05:40:03,42.805,6.029,-0.029,0.0,-0.014,103.0,101.0,101.0,13.3,1505.2,322.7,-0.7,1.8,2471.506,13.29,0.028,270.0
2023-08-12T05:43:03,42.805,6.029,-0.005,-0.003,-0.026,102.0,102.0,101.0,13.4,1505.2,334.3,-0.8,1.8,2471.486,13.29,0.005,239.0
2023-08-12T05:46:03,42.805,6.029,-0.016,0.003,-0.026,103.0,102.0,100.0,13.3,1505.2,350.1,-0.8,1.8,2471.464,13.29,0.016,280.6
2023-08-12T05:49:03,42.805,6.029,-0.016,0.002,-0.027,103.0,103.0,101.0,13.4,1505.2,340.9,-0.8,1.8,2471.493,13.29,0.016,277.1
2023-08-12T05:52:03,42.805,6.029,-0.001,0.008,-0.019,102.0,103.0,100.0,13.4,1505.2,350.3,-0.7,1.8,2471.509,13.29,0.008,352.9
2023-08-12T05:55:03,42.805,6.029,-0.035,0.01,-0.041,101.0,101.0,102.0,13.4,1505.2,349.1,-0.8,1.8,2471.496,13.29,0.036,285.9
2023-08-12T05:58:03,42.805,6.029,-0.01,-0.019,-0.061,102.0,101.0,101.0,13.3,1505.2,327.1,-0.7,1.8,2471.47,13.29,0.021,207.8
2023-08-12T06:04:03,42.805,6.029,-0.034,-0.014,-0.038,103.0,102.0,103.0,13.4,1505.2,334.8,-0.8,1.8,2471.524,13.29,0.036,247.6
2023-08-12T06:07:03,42.805,6.029,-0.021,0.012,-0.038,102.0,102.0,101.0,13.4,1505.2,339.3,-0.8,1.8,2471.537,13.29,0.024,299.7
2023-08-12T06:10:03,42.805,6.029,-0.021,0.012,0.006,103.0,101.0,101.0,13.4,1505.2,325.8,-0.7,1.8,2471.506,13.29,0.024,299.7
2023-08-12T06:13:03,42.805,6.029,-0.026,0.002,-0.028,102.0,103.0,101.0,13.4,1505.2,323.1,-0.8,1.8,2471.483,13.29,0.026,274.4
2023-08-12T06:16:03,42.805,6.029,-0.024,0.033,0.0,103.0,100.0,101.0,13.3,1505.2,350.9,-0.8,1.8,2471.486,13.29,0.04,324.0
2023-08-12T06:19:03,42.805,6.029,-0.001,-0.007,-0.038,103.0,101.0,102.0,13.4,1505.2,329.0,-0.8,1.8,2471.482,13.29,0.007,188.1
2023-08-12T06:22:03,42.805,6.029,-0.019,0.019,-0.008,102.0,103.0,100.0,13.4,1505.2,328.8,-0.8,1.8,2471.515,13.29,0.026,315.0
2023-08-12T06:25:03,42.805,6.029,-0.026,0.007,-0.057,102.0,102.0,101.0,13.4,1505.2,331.5,-0.8,1.8,2471.507,13.29,0.026,285.1
2023-08-12T06:28:03,42.805,6.029,0.002,0.005,-0.044,102.0,103.0,101.0,13.3,1505.2,332.9,-0.7,1.8,2471.462,13.29,0.005,21.8
2023-08-12T06:31:03,42.805,6.029,-0.018,0.003,-0.048,102.0,101.0,101.0,13.3,1505.2,319.9,-0.8,1.8,2471.475,13.29,0.018,279.5
2023-08-12T06:34:03,42.805,6.029,0.004,-0.001,0.01,103.0,102.0,101.0,13.4,1505.2,351.7,-0.7,1.8,2471.479,13.29,0.004,104.0
2023-08-12T06:37:03,42.805,6.029,-0.016,0.009,-0.017,102.0,102.0,101.0,13.3,1505.2,324.5,-0.7,1.8,2471.492,13.29,0.018,299.4
2023-08-12T06:40:03,42.805,6.029,-0.005,-0.001,-0.059,103.0,102.0,101.0,13.4,1505.2,332.1,-0.8,1.8,2471.433,13.29,0.005,258.7
2023-08-12T06:43:03,42.805,6.029,-0.019,0.002,-0.012,101.0,103.0,101.0,13.3,1505.2,329.0,-0.7,1.8,2471.456,13.29,0.019,276.0
2023-08-12T06:46:03,42.805,6.029,-0.012,0.01,-0.036,103.0,103.0,101.0,13.4,1505.2,343.5,-0.8,1.8,2471.498,13.29,0.015,309.8
2023-08-12T06:49:03,42.805,6.029,-0.019,0.011,-0.033,102.0,103.0,101.0,13.3,1505.2,351.0,-0.8,1.8,2471.458,13.29,0.021,300.1
2023-08-12T06:52:03,42.805,6.029,-0.013,0.008,-0.015,103.0,100.0,102.0,13.4,1505.2,321.6,-0.8,1.8,2471.467,13.29,0.015,301.6
2023-08-12T06:55:03,42.805,6.029,-0.026,0.0,-0.056,103.0,102.0,102.0,13.4,1505.2,342.6,-0.7,1.8,2471.511,13.29,0.026,270.0
2023-08-12T06:58:03,42.805,6.029,-0.011,0.012,-0.025,104.0,102.0,102.0,13.4,1505.2,334.8,-0.8,1.8,2471.472,13.29,0.016,317.5
2023-08-12T07:04:03,42.805,6.029,-0.007,0.013,-0.021,103.0,103.0,102.0,13.4,1505.2,325.7,-0.8,1.8,2471.496,13.29,0.014,331.7
2023-08-12T07:07:03,42.805,6.029,-0.018,-0.007,-0.029,102.0,102.0,101.0,13.4,1505.2,345.6,-0.7,1.8,2471.53,13.29,0.019,248.8
2023-08-12T07:10:03,42.805,6.029,0.013,0.0,-0.007,103.0,102.0,102.0,13.3,1505.2,321.4,-0.8,1.8,2471.531,13.29,0.013,90.0
2023-08-12T07:13:03,42.805,6.029,-0.044,0.015,-0.051,103.0,102.0,101.0,13.4,1505.2,330.7,-0.8,1.8,2471.519,13.29,0.046,288.8
2023-08-12T07:16:03,42.805,6.029,-0.013,0.014,-0.002,103.0,102.0,102.0,13.4,1505.2,338.2,-0.8,1.8,2471.49,13.29,0.019,317.1
2023-08-12T07:19:03,42.805,6.029,-0.019,-0.003,-0.057,103.0,101.0,102.0,13.4,1505.2,327.1,-0.8,1.8,2471.452,13.29,0.019,261.0
2023-08-12T07:22:03,42.805,6.029,-0.038,0.011,-0.048,103.0,102.0,101.0,13.4,1505.2,340.0,-0.8,1.8,2471.459,13.29,0.039,286.1
2023-08-12T07:25:03,42.805,6.029,0.001,0.01,-0.026,102.0,103.0,101.0,13.3,1505.2,331.3,-0.7,1.8,2471.492,13.29,0.01,5.7
2023-08-12T07:28:03,42.805,6.029,0.0,0.005,0.008,103.0,103.0,101.0,13.4,1505.2,345.0,-0.8,1.8,2471.481,13.29,0.005,0.0
2023-08-12T07:31:03,42.805,6.029,-0.013,0.018,-0.029,104.0,104.0,102.0,13.4,1505.2,343.3,-0.8,1.8,2471.467,13.29,0.022,324.2
2023-08-12T07:34:03,42.805,6.029,-0.003,0.0,-0.025,103.0,104.0,100.0,13.4,1505.2,343.6,-0.8,1.8,2471.491,13.29,0.003,270.0
2023-08-12T07:37:03,42.805,6.029,-0.02,0.023,0.021,103.0,103.0,102.0,13.3,1505.2,327.6,-0.8,1.8,2471.457,13.29,0.03,319.0
2023-08-12T07:40:03,42.805,6.029,-0.008,0.009,-0.01,103.0,102.0,102.0,13.4,1505.2,328.3,-0.8,1.8,2471.473,13.29,0.012,318.4
2023-08-12T07:43:03,42.805,6.029,-0.023,0.025,-0.024,103.0,101.0,101.0,13.3,1505.2,348.6,-0.8,1.8,2471.435,13.29,0.033,317.4
2023-08-12T07:46:03,42.805,6.029,-0.026,0.008,-0.006,102.0,102.0,101.0,13.4,1505.2,321.0,-0.8,1.8,2471.47,13.29,0.027,287.1
2023-08-12T07:49:03,42.805,6.029,-0.022,0.0,-0.023,104.0,102.0,101.0,13.4,1505.2,337.8,-0.8,1.8,2471.45,13.29,0.022,270.0
2023-08-12T07:52:03,42.805,6.029,-0.007,0.022,0.006,101.0,102.0,102.0,13.4,1505.2,340.9,-0.8,1.8,2471.457,13.29,0.023,342.4
2023-08-12T07:55:03,42.805,6.029,-0.01,0.034,-0.016,102.0,102.0,101.0,13.3,1505.2,343.7,-0.7,1.8,2471.439,13.29,0.035,343.6
2023-08-12T07:58:03,42.805,6.029,-0.035,0.008,-0.04,103.0,102.0,101.0,13.4,1505.2,330.7,-0.8,1.8,2471.425,13.29,0.035,282.9
2023-08-12T08:04:03,42.805,6.029,-0.021,0.019,-0.035,102.0,102.0,101.0,13.4,1505.2,330.2,-0.7,1.8,2471.457,13.29,0.028,312.1
2023-08-12T08:07:03,42.805,6.029,0.0,0.022,-0.005,101.0,103.0,102.0,13.3,1505.2,332.1,-0.8,1.8,2471.455,13.29,0.022,0.0
2023-08-12T08:10:03,42.805,6.029,-0.015,0.007,-0.04,104.0,102.0,101.0,13.4,1505.2,323.3,-0.8,1.8,2471.477,13.29,0.016,295.0
2023-08-12T08:13:03,42.805,6.029,-0.028,0.026,-0.002,102.0,102.0,101.0,13.4,1505.2,329.2,-0.8,1.8,2471.477,13.29,0.038,312.9
2023-08-12T08:16:03,42.805,6.029,-0.02,0.027,-0.008,102.0,102.0,100.0,13.3,1505.2,332.5,-0.7,1.8,2471.453,13.29,0.033,323.5
2023-08-12T08:19:03,42.805,6.029,-0.004,0.026,-0.024,102.0,104.0,100.0,13.3,1505.2,324.9,-0.8,1.8,2471.438,13.29,0.026,351.3
2023-08-12T08:22:03,42.805,6.029,-0.006,0.025,-0.02,102.0,103.0,101.0,13.4,1505.2,343.7,-0.8,1.8,2471.48,13.29,0.025,346.5
2023-08-12T08:25:03,42.805,6.029,-0.022,0.023,-0.023,103.0,103.0,102.0,13.4,1505.2,335.0,-0.8,1.8,2471.432,13.29,0.031,316.3
2023-08-12T08:28:03,42.805,6.029,-0.028,0.018,-0.029,102.0,103.0,101.0,13.4,1505.2,325.3,-0.8,1.8,2471.446,13.29,0.033,302.7
2023-08-12T08:31:03,42.805,6.029,-0.027,0.026,-0.036,102.0,102.0,101.0,13.4,1505.2,349.1,-0.8,1.8,2471.462,13.29,0.037,313.9
2023-08-12T08:34:03,42.805,6.029,-0.019,0.014,0.003,103.0,103.0,101.0,13.3,1505.2,337.9,-0.8,1.8,2471.416,13.29,0.023,306.4
2023-08-12T08:37:03,42.805,6.029,-0.017,0.01,-0.032,103.0,103.0,102.0,13.3,1505.2,329.2,-0.7,1.8,2471.406,13.29,0.019,300.5
2023-08-12T08:40:03,42.805,6.029,-0.033,0.021,-0.008,103.0,103.0,101.0,13.3,1505.2,341.1,-0.8,1.8,2471.445,13.29,0.039,302.5
2023-08-12T08:43:03,42.805,6.029,-0.005,0.0,-0.049,102.0,103.0,101.0,13.4,1505.2,329.4,-0.8,1.8,2471.43,13.29,0.005,270.0
2023-08-12T08:46:03,42.805,6.029,-0.004,0.01,-0.039,103.0,102.0,101.0,13.4,1505.2,330.2,-0.8,1.8,2471.443,13.29,0.01,338.2
2023-08-12T08:49:03,42.805,6.029,-0.021,0.016,-0.032,103.0,102.0,101.0,13.4,1505.2,326.8,-0.8,1.8,2471.445,13.29,0.026,307.3
2023-08-12T08:52:03,42.805,6.029,-0.021,0.02,-0.025,102.0,102.0,101.0,13.3,1505.2,324.5,-0.8,1.8,2471.435,13.29,0.028,313.6
2023-08-12T08:55:03,42.805,6.029,-0.024,0.023,-0.035,103.0,103.0,100.0,13.3,1505.2,325.4,-0.8,1.8,2471.445,13.29,0.033,313.8
2023-08-12T08:58:03,42.805,6.029,-0.006,0.032,-0.009,104.0,100.0,102.0,13.3,1505.2,340.9,-0.8,1.8,2471.405,13.29,0.032,349.4
2023-08-12T09:04:03,42.805,6.029,-0.033,0.0,-0.051,102.0,103.0,100.0,13.4,1505.2,328.1,-0.8,1.8,2471.476,13.29,0.033,270.0
2023-08-12T09:07:03,42.805,6.029,-0.039,0.021,-0.012,105.0,103.0,101.0,13.4,1505.2,324.0,-0.7,1.8,2471.474,13.29,0.044,298.3
2023-08-12T09:10:03,42.805,6.029,0.002,-0.008,-0.065,103.0,101.0,100.0,13.4,1505.2,335.3,-0.8,1.8,2471.456,13.29,0.008,166.0
2023-08-12T09:13:03,42.805,6.029,-0.005,0.026,-0.037,102.0,102.0,101.0,13.3,1505.2,351.8,-0.8,1.8,2471.414,13.29,0.026,349.1
2023-08-12T09:16:03,42.805,6.029,-0.005,0.011,-0.018,102.0,103.0,101.0,13.3,1505.2,334.7,-0.8,1.8,2471.462,13.29,0.012,335.6
2023-08-12T09:19:03,42.805,6.029,0.007,0.029,-0.003,103.0,102.0,102.0,13.3,1505.2,350.7,-0.8,1.8,2471.399,13.29,0.029,13.6
2023-08-12T09:22:03,42.805,6.029,-0.041,0.025,0.011,103.0,102.0,101.0,13.4,1505.2,322.9,-0.8,1.9,2471.424,13.29,0.048,301.4
2023-08-12T09:25:03,42.805,6.029,-0.01,0.009,-0.051,102.0,102.0,101.0,13.3,1505.2,330.5,-0.7,1.8,2471.423,13.29,0.013,312.0
2023-08-12T09:28:03,42.805,6.029,-0.027,0.017,-0.054,102.0,103.0,102.0,13.3,1505.2,343.6,-0.8,1.8,2471.408,13.29,0.031,302.2
2023-08-12T09:31:03,42.805,6.029,-0.024,0.014,-0.053,103.0,100.0,102.0,13.3,1505.2,320.9,-0.8,1.8,2471.431,13.29,0.027,300.3
2023-08-12T09:34:03,42.805,6.029,-0.02,0.03,-0.022,103.0,102.0,102.0,13.4,1505.2,331.2,-0.7,1.8,2471.381,13.29,0.036,326.3
2023-08-12T09:37:03,42.805,6.029,-0.013,0.025,-0.001,102.0,103.0,101.0,13.3,1505.2,328.2,-0.8,1.9,2471.401,13.29,0.028,332.5
2023-08-12T09:40:03,42.805,6.029,0.0,0.011,-0.012,102.0,104.0,101.0,13.4,1505.2,334.5,-0.8,1.8,2471.432,13.29,0.011,0.0
2023-08-12T09:43:03,42.805,6.029,0.0,-0.008,-0.034,102.0,103.0,101.0,13.3,1505.2,323.4,-0.7,1.8,2471.38,13.29,0.008,180.0
2023-08-12T09:46:03,42.805,6.029,-0.019,0.019,-0.015,102.0,102.0,101.0,13.4,1505.2,331.2,-0.8,1.8,2471.384,13.29,0.026,315.0
2023-08-12T09:49:03,42.805,6.029,-0.004,0.014,0.0,102.0,102.0,101.0,13.3,1505.2,332.1,-0.7,1.8,2471.41,13.29,0.014,344.1
2023-08-12T09:52:03,42.805,6.029,0.007,-0.008,-0.012,106.0,103.0,100.0,13.4,1505.2,337.9,-0.8,1.8,2471.387,13.29,0.01,138.8
2023-08-12T09:55:03,42.805,6.029,-0.003,0.029,-0.006,106.0,103.0,102.0,13.3,1505.2,344.2,-0.8,1.8,2471.415,13.29,0.029,354.1
2023-08-12T09:58:03,42.805,6.029,-0.008,0.02,-0.01,103.0,104.0,101.0,13.4,1505.2,338.2,-0.8,1.8,2471.379,13.29,0.021,338.2
2023-08-12T10:04:03,42.805,6.029,-0.001,0.006,-0.036,102.0,103.0,102.0,13.3,1505.2,352.1,-0.8,1.8,2471.421,13.29,0.006,350.5